Showing default

TRANSIT 4B, 202

Orbit data source: Space-Track

TRANSIT 4B, 202 is a payload satellite owned by USN BuWeps (US) in LEO that was launched on Wed, 15 Nov 1961 UTC via a THOR ABLESTAR launch vehicle from the Air Force Eastern Test Range (AFETR). Payload-class satellites include a variety of spacecraft equipped with specific instruments for various scientific and technological missions. These include communications satellites like Starlink; space stations such as the ISS; scientific satellites like the Hubble; Earth observation satellites from companies like Planet Labs, Umbra, and HawkEye 360; GPS; miniature CubeSats for education and research; and military/defense satellites.

Loading next visibility...
Identifier
202, 1961-031A
Orbit
LEO
Country
Flag of USUS
Related business
Manufacturer
APL
Mission
Defense Navigation
Bus & Motor
TRANSIT 4, Unknown motor
Mass
89 kg wet, 89 kg dry
Launch date (UTC)
1961-11-15 (64 years ago)
Launch vehicle
THOR ABLESTAR
Launch site
Air Force Eastern Test Range (AFETR)
Object type
Payload
Rocket body
Debris
Shape & HBR
Cyl, 0.5 m
Radar Cross Section
1.143 m², Large (>1 m²)

Expand to show TLE details & history
Last TLE update: 17 hours ago

TLE from 17 hours ago
0 TRANSIT 4B
1 00202U 61031A   25261.18949231  .00000065  00000-0  51459-4 0  9997
2 00202  32.4377 284.6785 0101162 308.6859  50.4750 13.63759512183849
Epoch: 2025-09-18T04:32Z
TLE epoch observation values (Epoch: 2025-09-18T04:32:52.135Z)
Latitude
0.00003°
Longitude
-140.89334°
Altitude
973.623 km
Speed
7.39 km/s
True Right ascension
18h 58m 42s
True Declination
0° 00' 00"
Sunlit
Object was in daylight at epoch
Visualization orbit readout
Latitude
Unknown
Longitude
Unknown
Altitude
Unknown
Speed
Unknown
Apparent Right ascension
Unknown
Apparent Declination
Unknown
Sunlit
N/A
Visualization observer readout
Local Sidereal Time
14:23:37
Azimuth
Unknown
Elevation
Unknown
Doppler factor
Unknown
Orbital elements
Apogee altitude
1,100.346 km
Perigee altitude
950.554 km
Semi-major axis
7,403.587 km
Eccentricity
0.01012
Inclination
32.4377°
RAAN
284.6785°
Arg. of periapsis
308.6859°
True anomaly
51.37638°
Mean anomaly
50.475°
Eccentric anomaly
50.92497°
Mean motion
3.40706 °/min
Orbital period
105.66 mins
BSTAR
0.000051459
Loading maneuver chart data...
Computing Atmospheric mass density...
Loading historical data...
Loading historical data...
Loading historical data...
Loading historical data...
Loading historical data...
Loading historical data...
Loading historical data...
Other satellites on launch #31 in the year 1961 (1961-11-15 UTC)

Documentation

Showing up to 5 results
|